sat.trackr.live / text

‹ back to catalog

STARLINK-6059

NORAD 56814 · 2023-078AZ

PAYLOAD ACTIVE UNKNOWN

§ Identity

Operator
Country
US
Launch date
2023-05-31
Launch site
AFWTR
Launch vehicle
Mass (kg)
RCS (m²)

Purposes: comms

External: N2YO · Heavens-Above · Gunter

§ Orbital elements

Epoch: 2026-09-20T18:20:28.035168Z

Period
96.11 min
Inclination
69.9994°
Eccentricity
0.0003198
Mean motion
14.98331435 rev/d
Perigee alt
569.8 km
Apogee alt
574.3 km
Semi-major
6,950.2 km
B*
1.4074e-5
RAAN
212.4743°
Arg perigee
270.8096°
Mean anomaly
89.2697°
Rev number
18,190

§ Raw data

STARLINK-60591 56814U 23078AZ  26263.76421337  .00000075  00000+0  14074-4 0  99972 56814  69.9994 212.4743 0003198 270.8096  89.2697 14.98331435181909

JSON: /api/v1/satellites/56814 · /tle

For live sub-satellite position, see the globe view (requires WebGL).

§ Visibility from observer

Set your observer location to see the next 7 days of passes ≥ 10°. The values pass through the URL so the page stays shareable.

No JS? Fill the form by hand. The geolocation button needs JavaScript.